Location: A�t Zolit-Tamakaydout
(32.6621°N, 5.3510°W)
Time: 01:48:55
(UTC+00:00)

Daily predictions for brighter satellites

Satellite Brightness Start Highest point End
(mag) Time Altitude Azimuth Time Altitude Azimuth Time Altitude Azimuth
ATLAS 3B R/B 4.3 03:36:30 29° ENE 03:36:30 29° ENE 03:41:28 10° ESE
Atlas Centaur 2 3.6 04:00:45 46° ESE 04:00:45 46° ESE 04:05:22 10° ESE
ADEOS Rocket 4.3 04:23:58 10° S 04:27:02 32° S 04:27:02 32° S
ADEOS 4.3 04:33:00 10° NNE 04:38:05 51° E 04:43:08 10° S
FENGYUN 3A 4.3 04:33:15 10° NNE 04:40:02 46° SSE 04:43:55 10° S
Milstar 3 Cent rocket 2.9 04:42:06 55° SSW 04:42:32 56° S 04:52:19 10° ESE
COSMOS 2455 3.8 04:49:17 34° N 04:49:17 34° N 04:52:39 10° NNE
CZ-2C R/B 3.6 04:50:55 17° ENE 04:50:55 17° ENE 04:51:45 10° ENE
OAO 2 Rocket 4.0 04:50:43 48° SSE 04:50:43 48° SSE 04:54:34 10° ESE
Cosmos 2181 Rocket 4.1 04:52:37 55° SSW 04:52:37 55° SSW 04:57:23 10° S
ATLAS CENTAUR R/B 3.3 04:54:06 23° SSE 04:54:06 23° SSE 04:55:43 10° SSE
METEOR-M 4.3 04:48:07 10° NNE 04:53:27 68° E 04:58:46 10° S
ERS-2 3.9 04:55:24 10° SE 04:58:35 29° ENE 04:59:08 28° NE
ATLAS 2A CENTAUR R/B 3.7 04:58:18 24° SSW 05:01:03 38° SSE 05:15:53 10° E
Cosmos 2074 Rocket 3.8 04:55:47 10° S 05:01:57 74° W 05:08:10 10° N
CRYOSAT 2 4.2 05:06:44 10° S 05:11:35 90° W 05:13:37 36° N
CZ-4B R/B 3.0 05:08:58 10° SSE 05:10:49 30° SE 05:10:49 30° SE
Cosmos 2228 Rocket 3.6 05:11:09 25° N 05:13:34 58° E 05:17:52 10° SSE
Cosmos 1437 Rocket 4.2 05:12:49 18° NNE 05:15:07 36° E 05:18:37 10° SSE
H-II Stage 2 3.3 05:18:37 19° SE 05:18:37 19° SE 05:19:40 10° ESE
Meteor 2-6 Rocket 4.0 05:16:02 21° N 05:19:48 87° W 05:25:23 10° S
SEDSat Delta rocket 3.4 05:20:56 51° WSW 05:22:18 79° S 05:27:10 10° E
ATLAS 3B R/B 3.0 05:23:49 37° WNW 05:26:08 50° WSW 05:33:07 10° S
Cosmos 2184 Rocket 4.2 05:21:33 10° SSW 05:27:34 47° W 05:33:41 10° N
Cosmos 2278 Rocket 2.2 05:24:20 10° SSW 05:29:58 86° ESE 05:35:39 10° NNE
Meteor PRIRODA 4.1 05:26:44 10° NNE 05:30:26 62° E 05:34:06 10° S
USA 142 4.2 05:31:12 35° SW 05:31:59 42° S 05:36:01 10° ESE
COSMO-SKYMED 1 3.1 05:28:13 10° SSE 05:32:28 59° ENE 05:36:45 10° N
CZ-4B R/B 3.0 05:28:20 10° NNE 05:32:41 80° E 05:36:49 10° S
DELTA 2 R/B(2) 4.3 05:35:37 57° SW 05:36:09 73° SSE 05:39:12 10° ENE
Cosmos 1805 Rocket 3.5 05:31:51 10° SSW 05:36:14 63° W 05:40:39 10° N
Envisat 4.5 05:38:33 10° NNE 05:43:18 39° E 05:48:00 10° SSE
Cosmos 1666 Rocket 3.8 05:40:15 10° S 05:44:30 67° E 05:48:49 10° NNE
deb Chang Zheng 4 3.9 05:41:33 10° N 05:45:38 41° WNW 05:49:42 10° SW
Atlas Centaur 2 3.3 05:43:20 22° W 05:47:31 41° SSW 05:53:21 10° SE
Cosmos 1812 3.0 05:47:06 37° WNW 05:47:46 41° W 05:51:23 10° SSW
SAR-Lupe-1 4.1 05:44:56 10° SSE 05:48:29 80° ENE 05:51:57 11° N
BREEZE-M (TANK) 3.8 05:34:24 10° SW 05:49:05 65° NW 05:52:47 10° NE
Cosmos 1689 Rocket 2.6 05:46:31 10° SSE 05:49:19 54° ENE 05:51:47 13° N
GPS 2-04 Rocket1 4.4 05:48:51 19° SW 05:49:49 20° SSW 05:52:47 10° SSE
COSMOS 2406 3.9 05:45:56 10° N 05:51:36 55° ENE 05:57:14 10° SE
SKYMED 3 4.5 05:52:09 10° S 05:56:27 69° WSW 06:00:47 10° NNW
Gbstr 26 Del rocket 4.4 05:56:33 17° WSW 05:56:57 17° SW 05:59:37 10° S
ATLAS 5 CENTAUR R/B 3.4 05:58:53 14° NNW 05:58:53 14° NNW 06:00:05 10° N
MOS 1 Rocket 4.2 05:56:08 10° SSE 06:00:54 55° ENE 06:05:58 10° N
Cosmos 2366 rocket 4.5 05:57:03 10° S 06:03:17 65° E 06:09:29 10° NNE
H-2A R/B 3.5 06:00:27 10° NNE 06:04:07 44° E 06:07:51 10° S
Cosmos 1633 Rocket 3.0 06:00:02 10° S 06:04:26 85° W 06:08:52 10° N
OAO 3 Copernicus 4.3 06:01:10 22° WNW 06:04:30 84° NNE 06:09:35 10° ESE
USA 306 4.5 06:01:36 10° NNW 06:05:19 29° NE 06:09:04 10° E
USA 81 4.0 06:01:04 10° S 06:06:18 86° W 06:11:35 10° N
Cosmos 2218 Rocket 4.2 06:02:46 10° S 06:09:00 77° E 06:15:12 10° N
Cosmos 1125 Rocket 3.8 06:04:42 10° SW 06:09:39 44° WNW 06:14:37 10° N
Meteor 1-20 Rocket 4.3 06:05:39 10° S 06:11:20 90° E 06:17:09 10° N
Nadezhda 3 Rocket 4.2 06:05:28 10° NNW 06:11:21 46° W 06:17:10 10° SSW
GENESIS II 4.3 06:08:32 10° SW 06:12:28 57° WNW 06:16:27 10° NNE
USA 234 4.4 06:06:34 10° NE 06:12:47 46° SE 06:18:59 10° SSW
Cosmos 1356 4.5 06:11:33 10° SW 06:14:20 23° WNW 06:17:09 10° NNW
Cosmos 1048 Rocket 3.9 06:10:16 10° NNW 06:15:29 79° WSW 06:20:36 10° S
H-2A R/B 3.0 06:14:32 10° N 06:18:15 46° WNW 06:21:53 10° SSW
SKYMED 2 4.3 06:16:38 10° SSW 06:20:34 34° W 06:24:31 10° NNW
Meteor 1-27 Rocket 4.0 06:16:16 10° NNW 06:21:56 51° W 06:27:37 10° SSW
NOSS 2-1 (E) 3.0 06:21:22 10° SW 06:24:47 49° WNW 06:28:02 10° NNE
Centaur AC-116 4.4 06:23:25 10° WSW 06:25:10 14° SSW 06:26:30 10° S
PSLV R/B 3.8 06:22:39 10° N 06:26:17 50° WNW 06:29:51 10° SSW
CZ-2C R/B 0.9 06:25:16 13° WNW 06:28:06 56° N 06:31:18 10° E
Cosmos 1707 Rocket 3.9 06:27:59 10° NNW 06:32:05 43° W 06:36:10 10° SSW
ERS-2 4.1 06:30:36 10° WSW 06:32:08 12° W 06:33:41 10° WNW
Sich 1 4.5 06:31:02 10° WSW 06:34:04 18° WNW 06:37:06 10° NNW
CZ-4B DEB 4.3 06:34:23 10° N 06:39:46 60° WNW 06:45:09 10° SSW
SL-8 Rocket 4.3 06:38:42 10° SSW 06:44:28 42° W 06:50:18 10° N
Cosmos 1602 4.2 06:42:00 10° SSW 06:45:43 41° W 06:49:28 10° N
BREEZE-M DEB (TANK) 2.8 06:42:49 10° WNW 06:46:46 40° SW 06:48:49 10° SSE
